Prox-1
1 44339U 19036A   25043.56486968  .00016489  00000-0  23049-2 0  9996
2 44339  23.9981 108.3278 0008039 172.7637 187.2976 14.75968018300685
SONATE
1 44400U 19038Q   25043.53576578  .00066571  00000-0  86805-3 0  9998
2 44400  97.7093  58.2117 0007779 335.0415  25.0462 15.58462276311172
Taurus 1
1 44530U 19059C   25043.83287805  .00010480  00000-0  20578-2 0  9992
2 44530  98.5911 178.0282 0009174  34.8763 325.3037 14.62842864286858
Duchifat 3
1 44854U 19089C   25043.24629798  .00040946  00000-0  12176-2 0  9995
2 44854  36.9497  14.3820 0010364 286.2244  73.7368 15.33760738284916
TO-108
1 44881U 19093C   25043.81968342  .00001851  00000-0  22235-3 0  9994
2 44881  97.8039 121.8929 0012671 253.3145 106.6679 14.85123221278747
FloripaSat 1
1 44885U 19093G   25043.81243352  .00008122  00000-0  72632-3 0  9999
2 44885  97.8225 131.3468 0010423 234.2923 125.7329 14.96101774279271
RS-44
1 44909U 19096E   25043.43955886  .00000026  00000-0  63472-4 0  9997
2 44909  82.5231 305.1291 0216793 209.2516 149.6305 12.79738189239707
UPMSat 2
1 46276U 20061E   25043.79032133  .00044015  00000-0  71531-3 0  9990
2 46276  97.2628 115.5886 0000222  14.6741 345.4518 15.52580718247256
SALSAT
1 46495U 20068K   25043.81346040  .00010864  00000-0  50950-3 0  9995
2 46495  97.8484  16.7726 0011464 196.8899 163.1955 15.19807232240773
CubeSX-Sirius-HSE
1 47951U 21022V   25043.83442922  .00080878  00000-0  13306-2 0  9997
2 47951  97.4347 311.0543 0008930  22.1911 337.9726 15.52038080215529
CubeSX-HSE
1 47952U 21022W   25043.81521455  .00079417  00000-0  12847-2 0  9991
2 47952  97.4352 311.2114 0008561  17.4029 342.7515 15.52519648215534
KSU-Cubesat
1 47954U 21022Y   25043.72246563  .00217711  00000-0  16674-2 0  9990
2 47954  97.4318 315.1144 0005929  43.3777 316.7952 15.71449121215497
GRBAlpha
1 47959U 21022AD  25043.77674258  .00078131  00000-0  12704-2 0  9997
2 47959  97.4337 311.3326 0008941  21.1959 338.9662 15.52377537214354
Orbicraft-Zorkiy
1 47960U 21022AE  25043.78955955  .00140485  00000-0  15392-2 0  9994
2 47960  97.4333 314.3837 0006851  28.1646 331.9982 15.62777527215218
TUBIN
1 48900U 21059X   25043.81291695  .00039535  00000-0  76512-3 0  9992
2 48900  97.6653 204.7531 0005088 309.5963  50.4837 15.47626174201909
LEDSAT
1 49069U 21073D   25043.76505260  .00046405  00000-0  10061-2 0  9995
2 49069  97.4049 121.8396 0013171 144.4630 215.7498 15.44182176193310
CUTE
1 49263U 21088D   25043.72279944  .00029401  00000-0  71704-3 0  9999
2 49263  97.4658 116.9987 0008266 310.1085  49.9436 15.40808331186391
TeikyoSat 4
1 49396U 21102B   25043.57653829  .00003439  00000-0  23481-3 0  9996
2 49396  97.4284  86.1801 0013076 167.2441 192.9120 15.06754434178923
Z-Sat
1 49399U 21102E   25043.87488288  .00006644  00000-0  38128-3 0  9992
2 49399  97.3984  88.9017 0019585 144.9865 215.2658 15.12703808179320
KOSEN 1
1 49402U 21102H   25043.68779245  .00009999  00000-0  49760-3 0  9992
2 49402  97.3895  91.3227 0017927 125.0586 235.2333 15.17656363179549
HO-113
1 50466U 21131B   25043.87487241  .00001087  00000-0  35513-3 0  9990
2 50466  98.5135 133.8259 0005131 121.8063 238.3626 14.40529257164646
IRIS-A
1 51044U 22002BN  25043.48019395  .00080210  00000-0  10883-2 0  9996
2 51044  97.3460 118.3982 0003952 246.1525 113.9316 15.57370579171452
Foresail-1
1 52766U 22057AL  25043.38142616  .00067506  00000-0  93138-3 0  9998
2 52766  97.5979 184.7340 0006180 337.2449  22.8531 15.56955845151470
SNUGLITE 2
1 52899U 22065F   25043.87656497  .00002272  00000-0  45621-3 0  9998
2 52899  98.1475 187.1590 0008503 116.9665 243.2406 14.62606156139427
IO-117
1 53106U 22080B   25042.50223640 -.00000003  00000-0  00000-0 0  9996
2 53106  70.1392 109.3763 0008154  50.6584 309.4797  6.42557620 60646
FO-118
1 54684U 22167C   25043.88864529  .00365623  00000-0  16625-2 0  9996
2 54684  97.6088 207.2087 0008233 313.8838  46.1749 15.82874937121529
SO-120
1 56992U 23084BU  25042.76759540  .17342116  26494-5  33638-3 0  9995
2 56992  97.5047 178.6720 0014759 276.3055  83.6566 16.46134597 93271
UmKA 1 (RS40S)
1 57172U 23091G   25043.84998582  .00007683  00000-0  43682-3 0  9994
2 57172  97.5768  99.9054 0015530  22.3028 337.8875 15.13061975 89818
CubeBel-2 (EU11S)
1 57175U 23091K   25043.87534787  .00010986  00000-0  57700-3 0  9999
2 57175  97.5772 100.4742 0013751  32.6911 327.5169 15.15802520 89853
VERONIKA
1 58261U 23174F   25043.81544379  .00059579  00000-0  12901-2 0  9994
2 58261  97.4292 125.4525 0007368 109.0600 251.1447 15.44221472 70521
KAFASAT
1 58317U 23174BP  25043.85388570  .00158148  00000-0  17133-2 0  9993
2 58317  97.4178 128.7030 0002619  51.5507 308.5986 15.63031453 70764
ENSO
1 58470U 23185J   25043.89015109  .00038513  00000-0  91538-3 0  9999
2 58470  97.3911 116.4373 0009134 140.3566 219.8351 15.41522829 66979
EIRSAT-1
1 58472U 23185L   25043.84966503  .00051290  00000-0  10685-2 0  9999
2 58472  97.3904 117.0608 0008126 141.2616 218.9216 15.45394627 67010
SONATE-2
1 59112U 24043Q   25043.33317763  .00021727  00000-0  75421-3 0  9999
2 59112  97.4970 172.7770 0012112 168.6054 191.5463 15.29727300 52376
MO-122
1 60209U 24125G   25043.56604357  .00022291  00000-0  76355-3 0  9996
2 60209  97.2939 256.8446 0020666 193.3465 166.7232 15.30013843 34028
GRBBeta
1 60237U 24128C   25043.55566610  .00005761  00000-0  45929-3 0  9994
2 60237  61.9931 127.0837 0040143  30.1699 330.1690 15.00820903 32620
Curium One
1 60242U 24128H   25043.54405059  .00009188  00000-0  69872-3 0  9998
2 60242  61.9834 126.7849 0040486  24.4415 335.8583 15.02078567 32636
ROBUSTA-3A
1 60243U 24128J   25043.71468907  .00008733  00000-0  67226-3 0  9995
2 60243  61.9901 126.6660 0038673  22.4414 337.8357 15.01718509 32653
CatSat
1 60246U 24125J   25043.53221358  .00013946  00000-0  51347-3 0  9991
2 60246  97.2726 257.1545 0046326 148.7647 211.6360 15.26923254 32104
HYPERVIEW-1G (RS66S)
1 61772U 24199AP  25043.85266904  .00022719  00000-0  81535-3 0  9998
2 61772  97.3729 273.3533 0014092 249.0472 110.9260 15.28601758 59086
AO-123
1 61781U 24199AY  25043.82174214  .00010956  00000-0  43156-3 0  9994
2 61781  97.3738 273.1007 0015120 250.2221 109.7387 15.25671839 59067
POEM 4 (BGS ARPIT)
1 62461U 24253C   25043.80150634  .00143095  00000-0  68696-3 0  9996
2 62461  55.2199  45.4263 0012582  47.5254 312.6857 15.81727891  6941
